Location: Gellin
(53.4498°N, 14.3207°E)
Time: 23:30:16
(UTC+00:00)

Resurs 01 Rocket - Pass Details

Date: 03 March 2021
Orbit: 635 x 643 km, 98.0° (Epoch: 12 April)

Event Time Altitude Azimuth Distance (km) Brightness Sun altitude
Exits shadow 19:12:40 66° 79° (E) 697 1.5 -22.5°
Maximum altitude 19:12:45 67° 71° (ENE) 696 1.5 -22.5°
Drops below altitude 10° 19:17:09 10° 350° (N) 2,038 4.6 -23.1°
Sets 19:19:23 0° 348° (NNW) 2,952 5.5 -23.4°
